Location: Newark
(45.8667°N, 9.7333°E)
Time: 17:12:24
(UTC+00:00)

Transit 4A - Pass Details

Date: 24 January 2020
Orbit: 872 x 973 km, 66.8° (Epoch: 26 February)

Event Time Altitude Azimuth Distance (km) Brightness Sun altitude
Rises 14:54:18 0° 326° (NW) 3,472 10.8 10.6°
Reaches altitude 10° 14:56:47 10° 325° (NW) 2,529 10.2 10.2°
Maximum altitude 15:02:37 78° 240° (WSW) 900 8.3 9.5°
Drops below altitude 10° 15:08:28 10° 155° (SSE) 2,537 10.4 8.7°
Sets 15:10:57 0° 154° (SSE) 3,483 11.1 8.4°
